{"data":{"norad_id":46905,"intl_designator":"2020-081A","name":"RISAT-2BR2","alt_names":[],"object_type":"PAYLOAD","status":"ACTIVE","operator":null,"country":"IND","launch_date":"2020-11-07","launch_site_code":"SRILR","launch_vehicle":null,"mission":null,"orbit_class":"UNKNOWN","rcs_meters":null,"size_class":null,"mass_kg":null,"dimensions":null,"purposes":[],"wikipedia_slug":null,"has_3d_model":false,"image_url":null,"decayed_at":null,"tle_current":{"epoch":"2026-09-19T19:02:51.071424Z","epoch_age_seconds":134720,"freshness":"FRESH","line1":"1 46905U 20081A   26262.79364666  .00000162  00000+0  18594-4 0  9999","line2":"2 46905  36.8996  22.7736 0015118 203.9493 156.0546 15.00916810321699","mean_motion":15.0091681,"eccentricity":0.0015118,"inclination_deg":36.8996,"raan_deg":22.7736,"arg_perigee_deg":203.9493,"mean_anomaly_deg":156.0546,"bstar":1.8594e-5,"rev_number":32169,"period_min":95.941360001158,"perigee_km":553.57266044879,"apogee_km":574.56311114148,"semimajor_km":6942.2048857951,"source":"CELESTRAK","updated_at":"2026-09-20T09:00:14.800016Z"}}}